�_�ʐ�͌���@�\�w���ɂ��Y���u�C�̈ړ���,,,,,,,,,,
�@,Time,Time int.,,Lat.,,Long.,,Direction,Speed,
Date(yyyy/mm/dd),(hh:mm),(hour),(min),(deg),(min),(deg),(min),(deg),(m/s),(knots)
2006/2/21,9:45,0,,36,46.002,137,13.248,,,
2006/2/21,9:50,0,5,36,46.044,137,13.236,347.02,0.27,0.52
2006/2/21,9:55,0,5,36,46.068,137,13.23,348.6,0.15,0.29
2006/2/21,10:00,0,5,36,46.098,137,13.224,350.83,0.19,0.36
2006/2/21,10:05,0,5,36,46.14,137,13.218,353.41,0.26,0.51
2006/2/21,10:10,0,5,36,46.176,137,13.206,344.96,0.23,0.45
2006/2/21,10:15,0,5,36,46.218,137,13.194,347.02,0.27,0.52
2006/2/21,10:20,0,5,36,46.242,137,13.2,11.34,0.15,0.29
2006/2/21,10:25,0,5,36,46.278,137,13.194,352.33,0.22,0.44
2006/2/21,10:30,0,5,36,46.308,137,13.152,311.57,0.28,0.54
2006/2/21,10:35,0,5,36,46.356,137,13.146,354.23,0.3,0.58
2006/2/21,10:40,0,5,36,46.38,137,13.134,338.06,0.16,0.31
2006/2/21,10:45,0,5,36,46.428,137,13.116,343.18,0.31,0.6
2006/2/21,10:50,0,5,36,46.428,137,13.104,269.97,0.06,0.12
2006/2/21,10:55,0,5,36,46.47,137,13.098,353.81,0.28,0.54
2006/2/21,11:00,0,5,36,46.488,137,13.092,346.84,0.13,0.25
2006/2/21,11:05,0,5,36,46.512,137,13.092,359.97,0.16,0.3
2006/2/21,11:10,0,5,36,46.536,137,13.074,330.23,0.18,0.35
2006/2/21,11:15,0,5,36,46.554,137,13.074,359.97,0.11,0.22
2006/2/21,11:20,0,5,36,46.56,137,13.062,301.83,0.07,0.14
2006/2/21,11:25,0,5,36,46.602,137,13.056,353.41,0.26,0.51
2006/2/21,11:30,0,5,36,46.614,137,13.05,338.06,0.08,0.16


�A,Time,Time int.,,Lat.,,Long.,,Direction,Speed,
Date(yyyy/mm/dd),(hh:mm),(hour),(min),(deg),(min),(deg),(min),(deg),(m/s),(knots)
2006/2/21,11:45,0,,36,46.044,137,13.452,,,
2006/2/21,11:50,0,5,36,46.104,137,13.458,4.47,0.38,0.74
2006/2/21,11:55,0,5,36,46.176,137,13.434,345.22,0.47,0.91
2006/2/21,12:00,0,5,36,46.242,137,13.44,4.07,0.42,0.81
2006/2/21,12:05,0,5,36,46.29,137,13.428,349.18,0.32,0.62
2006/2/21,12:10,0,5,36,46.338,137,13.428,359.97,0.31,0.61
2006/2/21,12:15,0,5,36,46.404,137,13.416,351.97,0.43,0.83
2006/2/21,12:20,0,5,36,46.458,137,13.404,350.3,0.35,0.69
2006/2/21,12:25,0,5,36,46.494,137,13.404,359.97,0.24,0.46
2006/2/21,12:30,0,5,36,46.536,137,13.41,6.13,0.28,0.54
2006/2/21,12:35,0,5,36,46.59,137,13.392,345.64,0.36,0.7
2006/2/21,12:40,0,5,36,46.632,137,13.386,353.8,0.28,0.54
2006/2/21,12:45,0,5,36,46.68,137,13.374,349.19,0.32,0.62
2006/2/21,12:50,0,5,36,46.734,137,13.374,359.97,0.35,0.68
2006/2/21,12:55,0,5,36,46.764,137,13.356,336.08,0.22,0.43
2006/2/21,13:00,0,5,36,46.806,137,13.35,353.8,0.28,0.54
2006/2/21,13:05,0,5,36,46.854,137,13.344,354.53,0.31,0.61
2006/2/21,13:10,0,5,36,46.872,137,13.332,334.96,0.14,0.27
2006/2/21,13:15,0,5,36,46.914,137,13.332,359.97,0.28,0.54
2006/2/21,13:20,0,5,36,46.956,137,13.332,359.97,0.28,0.54
2006/2/21,13:25,0,5,36,46.986,137,13.32,344.14,0.22,0.42
2006/2/21,13:30,0,5,36,47.028,137,13.32,359.97,0.28,0.55
2006/2/21,13:35,0,5,36,47.046,137,13.308,336.32,0.15,0.29
2006/2/21,13:40,0,5,36,47.076,137,13.296,344.14,0.22,0.42
2006/2/21,13:45,0,5,36,47.088,137,13.278,315.39,0.13,0.25
2006/2/21,13:50,0,5,36,47.13,137,13.278,359.97,0.28,0.54
2006/2/21,13:55,0,5,36,47.154,137,13.272,349.72,0.17,0.33
2006/2/21,14:00,0,5,36,47.178,137,13.254,331.49,0.19,0.36
2006/2/21,14:05,0,5,36,47.202,137,13.236,331.49,0.19,0.36
2006/2/21,14:10,0,5,36,47.22,137,13.224,334.96,0.14,0.27
2006/2/21,14:15,0,5,36,47.232,137,13.2,307.24,0.15,0.29
2006/2/21,14:20,0,5,36,47.244,137,13.176,307.24,0.15,0.29
2006/2/21,14:25,0,5,36,47.256,137,13.152,307.24,0.15,0.29
2006/2/21,14:30,0,5,36,47.262,137,13.128,294.21,0.13,0.25
2006/2/21,14:35,0,5,36,47.28,137,13.098,310.58,0.2,0.38


�B,Time,Time int.,,Lat.,,Long.,,Direction,Speed,
Date(yyyy/mm/dd),(hh:mm),(hour),(min),(deg),(min),(deg),(min),(deg),(m/s),(knots)
2006/2/21,9:45,0,,36,45.984,137,13.362,,,
2006/2/21,9:50,0,5,36,46.032,137,13.35,348.59,0.3,0.59
2006/2/21,9:55,0,5,36,46.104,137,13.326,344.95,0.46,0.89
2006/2/21,10:00,0,5,36,46.146,137,13.32,353.41,0.26,0.51
2006/2/21,10:05,0,5,36,46.158,137,13.314,338.05,0.08,0.16
2006/2/21,10:10,0,5,36,46.206,137,13.296,343.18,0.31,0.6
2006/2/21,10:15,0,5,36,46.218,137,13.266,296.4,0.17,0.32
2006/2/21,10:20,0,5,36,46.29,137,13.272,3.8,0.44,0.86
2006/2/21,10:25,0,5,36,46.326,137,13.26,344.96,0.23,0.45
2006/2/21,10:30,0,5,36,46.368,137,13.236,335.28,0.28,0.55
2006/2/21,10:45,0,15,36,46.494,137,13.2,347.02,0.27,0.52
2006/2/21,10:50,0,5,36,46.53,137,13.17,326.13,0.27,0.52
2006/2/21,10:55,0,5,36,46.578,137,13.164,354.53,0.31,0.61
2006/2/21,11:00,0,5,36,46.602,137,13.158,349.72,0.17,0.33
2006/2/21,11:05,0,5,36,46.638,137,13.14,338.78,0.25,0.48
2006/2/21,11:10,0,5,36,46.674,137,13.134,352.61,0.23,0.45
2006/2/21,11:15,0,5,36,46.698,137,13.134,359.97,0.15,0.29
2006/2/21,11:20,0,5,36,46.722,137,13.128,348.6,0.15,0.29
2006/2/21,11:25,0,5,36,46.764,137,13.122,353.41,0.26,0.51
2006/2/21,11:30,0,5,36,46.794,137,13.11,342.13,0.19,0.38


�C,Time,Time int.,,Lat.,,Long.,,Direction,Speed,
Date(yyyy/mm/dd),(hh:mm),(hour),(min),(deg),(min),(deg),(min),(deg),(m/s),(knots)
2006/2/21,11:45,0,,36,45.978,137,13.548,,,
2006/2/21,11:50,0,5,36,46.026,137,13.572,21.34,0.33,0.64
2006/2/21,11:55,0,5,36,46.038,137,13.596,55.32,0.14,0.28
2006/2/21,12:00,0,5,36,46.086,137,13.602,5.55,0.31,0.59
2006/2/21,12:05,0,5,36,46.122,137,13.614,14.46,0.24,0.46
2006/2/21,12:10,0,5,36,46.164,137,13.626,12.52,0.27,0.53
2006/2/21,12:15,0,5,36,46.248,137,13.644,9.45,0.54,1.05
2006/2/21,12:25,0,10,36,46.266,137,13.638,348.31,0.07,0.14
2006/2/21,12:30,0,5,36,46.284,137,13.674,54.42,0.22,0.43
2006/2/21,12:35,0,5,36,46.326,137,13.656,342.01,0.29,0.56
2006/2/21,12:40,0,5,36,46.362,137,13.668,13.98,0.25,0.48
2006/2/21,12:45,0,5,36,46.386,137,13.68,19.85,0.17,0.34
2006/2/21,12:50,0,5,36,46.416,137,13.68,359.97,0.2,0.39
2006/2/21,12:55,0,5,36,46.398,137,13.734,109.38,0.28,0.55
2006/2/21,13:05,0,5,36,46.446,137,13.74,5.4,0.31,0.61
2006/2/21,13:10,0,5,36,46.482,137,13.74,359.97,0.24,0.46
2006/2/21,13:15,0,5,36,46.554,137,13.722,348.99,0.47,0.91
2006/2/21,13:20,0,5,36,46.584,137,13.722,359.97,0.2,0.39
2006/2/21,13:25,0,5,36,46.596,137,13.644,284.3,0.4,0.78
2006/2/21,13:30,0,5,36,46.644,137,13.656,10.48,0.33,0.63
2006/2/21,13:35,0,5,36,46.662,137,13.656,359.97,0.14,0.26
2006/2/21,13:40,0,5,36,46.692,137,13.644,344.13,0.22,0.42
2006/2/21,13:45,0,5,36,46.71,137,13.626,324.98,0.16,0.3
2006/2/21,13:50,0,5,36,46.74,137,13.584,314.02,0.29,0.56
2006/2/21,13:55,0,5,36,46.77,137,13.572,343.52,0.21,0.41
2006/2/21,14:00,0,5,36,46.794,137,13.548,324.09,0.2,0.39
2006/2/21,14:15,0,15,36,46.872,137,13.518,344.31,0.18,0.36
2006/2/21,14:20,0,5,36,46.896,137,13.47,304.62,0.29,0.56
2006/2/21,14:25,0,5,36,46.914,137,13.506,54.42,0.22,0.43
2006/2/21,14:30,0,5,36,46.914,137,13.482,277.9,0.12,0.23
